Regional Weather Roundup
Issued by NWS

Home | Current Version | Previous Version | Text Only | Print | Product List | Glossary On
Versions: 1 2 3 4 5 6 7 8 9 10 11 12 13 14 15 16 17 18 19 20 21 22 23 24 25 26 27 28 29 30 31 32 33 34 35 36 37 38 39 40 41 42 43 44 45 46 47 48 49 50
989
ASUS43 KFSD 270702
RWRSD

WEATHER ROUNDUP FOR SOUTH DAKOTA
NATIONAL WEATHER SERVICE SIOUX FALLS SD
200 AM CDT TUE SEP 27 2016

NOTE: "FAIR" INDICATES FEW OR NO CLOUDS BELOW 12,000 FEET WITH NO
SIGNIFICANT WEATHER AND/OR OBSTRUCTIONS TO VISIBILITY.


SDZ001>005-009-010-012>017-270800-
NORTHWEST AND NORTH CENTRAL SOUTH DAKOTA

CITY           SKY/WX    TMP DP  RH WIND       PRES   REMARKS
BUFFALO          N/A     50  42  74 W9        30.06F
FAITH            N/A     51  41  68 W5        30.10F
MOBRIDGE       CLEAR     44  37  76 CALM      30.04F
$$

SDZ012>016-024>037-041>051-057-063-072>074-270800-
SOUTHWEST AND SOUTH CENTRAL SOUTH DAKOTA

CITY           SKY/WX    TMP DP  RH WIND       PRES   REMARKS
RAPID CTY ARPT CLEAR     44  39  82 CALM      30.16F
PIERRE         CLEAR     50  39  66 W8        30.07F
CUSTER         CLOUDY    51  39  63 W8        30.24F
ELLSWORTH AFB  CLEAR     50  42  73 SW7       30.15F
PHILIP         PTCLDY    45  39  79 W8        30.12S
PINE RIDGE     CLOUDY    38  36  92 CALM      30.18F
WINNER         FAIR      48  40  73 SW6       30.11F
$$

SDZ004>011-016>023-039-040-270800-
NORTHEAST SOUTH DAKOTA

CITY           SKY/WX    TMP DP  RH WIND       PRES   REMARKS
ABERDEEN       CLEAR     48  37  65 W8        30.02F
WATERTOWN      CLEAR     47  38  71 W8        30.00S
SISSETON         N/A     51  35  54 NW10      29.96S
$$

SDZ017-020-022-023-036>040-048>070-270800-
SOUTHEAST SOUTH DAKOTA

CITY           SKY/WX    TMP DP  RH WIND       PRES   REMARKS
SIOUX FALLS    CLEAR     48  36  63 W9        30.03S
HURON          CLEAR     44  35  70 W6        30.04F
CHAMBERLAIN    CLEAR     49  42  76 W6        30.09S
MITCHELL       CLEAR     51  36  56 W9        30.06F
YANKTON        CLEAR     48  41  76 W3        30.06R
$$

ABBREVIATIONS USED IN REMARKS
   TC - TEMPERATURE IN CELSIUS
  WCI - WIND CHILL INDEX
   HX - HEAT INDEX
  VSB - VISIBILITY





USA.gov is the U.S. government's official web portal to all federal, state and local government web resources and services.